Mitchell, SD

3:00 AM CDT on September 18, 2019 (GMT -0500)
Mitchell Municipal

Weather History for KMHE - July, 2019

Change the Weather History Date:

Friday, July 12, 2019

  Actual Average Record
Temperature  
Mean Temperature 78 °F 75 °F  
Max Temperature 88 °F 87 °F 105 °F (1938)
Min Temperature 67 °F 63 °F 38 °F (1900)
Degree Days  
Heating Degree Days 0 0  
Month to date heating degree days 0 0  
Since 1 June heating degree days 16 35  
Since 1 July heating degree days 0 0  
Cooling Degree Days 13 10  
Month to date cooling degree days 137 118  
Year to date cooling degree days 348 328  
Since 1 June cooling degree days 329 288  
Growing Degree Days 28 (Base 50)    
Moisture  
Dew Point 68 °F    
Average Humidity 73    
Maximum Humidity 87    
Minimum Humidity 59    
Precipitation  
Precipitation 0.08 in 0.09 in 1.21 in (2018)
Month to date precipitation 2.91 1.33  
Year to date precipitation 17.37 12.19  
Snow  
Snow 0.00 in - 0.00 in ()
Month to date snowfall 0.0  
Since 1 June snowfall 0.0  
Since 1 July snowfall 0.0  
Snow Depth 0.00 in    
Sea Level Pressure  
Sea Level Pressure 29.90 in    
Wind  
Wind Speed 7 mph (ESE)    
Max Wind Speed 24 mph    
Max Gust Speed 31 mph    
Visibility 10 miles    
Events Rain , Thunderstorm    
T = Trace of Precipitation, MM = Missing Value Source: NWS Daily Summary

Daily Weather History Graph

Daily Weather History Graph

Search for Another Location

Airport or City:

Astronomy

Jul. 12, 2019 Rise Set
Actual Time 6:01 AM CDT 9:13 PM CDT
Civil Twilight 5:26 AM CDT 9:48 PM CDT
Nautical Twilight 4:40 AM CDT 10:33 PM CDT
Astronomical Twilight 3:45 AM CDT 11:28 PM CDT
Moon 5:31 PM CDT (7/12) 2:50 AM CDT (7/12)
Length of Visible Light 16h 22m
Length of Day
15h 12m
Waxing Gibbous, 83% of the Moon is Illuminated
Jul 12
Waxing Gibbous
Jul 16
Full
Jul 24
Last Quarter
Jul 31
New
Aug 7
First Quarter

Hourly Weather History & Observations

Time (CDT) Temp. Heat Index Dew Point Humidity Pressure Visibility Wind Dir Wind Speed Gust Speed Precip Events Conditions
12:53 AM 73.0 °F - 64.9 °F 76% 29.90 in 10.0 mi South 10.4 mph - N/A   Clear
1:53 AM 71.1 °F - 64.9 °F 81% 29.89 in 10.0 mi SSE 9.2 mph - N/A   Clear
2:53 AM 71.1 °F - 64.9 °F 81% 29.88 in 10.0 mi South 9.2 mph - N/A   Clear
3:53 AM 69.1 °F - 64.0 °F 84% 29.87 in 10.0 mi SSE 8.1 mph - N/A   Clear
4:53 AM 69.1 °F - 64.0 °F 84% 29.86 in 10.0 mi SSE 8.1 mph - N/A   Clear
5:53 AM 68.0 °F - 64.0 °F 87% 29.88 in 10.0 mi Calm Calm - N/A   Clear
6:53 AM 69.1 °F - 64.9 °F 87% 29.89 in 10.0 mi SSE 4.6 mph - N/A   Clear
7:53 AM 72.0 °F - 64.9 °F 78% 29.89 in 10.0 mi SSE 6.9 mph - N/A   Clear
8:53 AM 75.9 °F - 66.0 °F 71% 29.88 in 10.0 mi SSW 8.1 mph - N/A   Clear
9:53 AM 80.1 °F 82.1 °F 66.0 °F 62% 29.94 in 10.0 mi NW 10.4 mph - N/A   Partly Cloudy
10:12 AM 79.0 °F - 66.9 °F 66% 29.96 in 10.0 mi North 8.1 mph - N/A Thunderstorm Partly Cloudy
10:28 AM 77.0 °F - 66.9 °F 71% 29.99 in 10.0 mi West 11.5 mph 27.6 mph 0.00 in Rain , Thunderstorm Light Thunderstorms and Rain
10:53 AM 73.0 °F - 68.0 °F 84% 29.86 in 10.0 mi East 18.4 mph 31.1 mph 0.08 in Rain , Thunderstorm Light Thunderstorms and Rain
11:00 AM 73.0 °F - 68.0 °F 84% 29.88 in 10.0 mi ESE 8.1 mph 26.5 mph 0.00 in Rain , Thunderstorm Light Thunderstorms and Rain
11:07 AM 73.0 °F - 68.0 °F 84% 29.88 in 10.0 mi SE 16.1 mph 20.7 mph 0.00 in Rain , Thunderstorm Light Rain
11:30 AM 73.9 °F - 64.9 °F 73% 29.89 in 10.0 mi East 10.4 mph - 0.00 in Rain Light Rain
11:53 AM 73.0 °F - 66.0 °F 79% 29.89 in 10.0 mi WSW 12.7 mph - 0.00 in   Partly Cloudy
12:53 PM 75.9 °F - 70.0 °F 82% 29.89 in 10.0 mi NNW 8.1 mph - N/A   Clear
1:53 PM 78.1 °F - 70.0 °F 76% 29.88 in 10.0 mi NNE 9.2 mph - N/A   Partly Cloudy
2:53 PM 82.0 °F 85.9 °F 70.0 °F 67% 29.91 in 10.0 mi ESE 5.8 mph - 0.00 in   Partly Cloudy
3:53 PM 84.9 °F 89.4 °F 70.0 °F 61% 29.91 in 10.0 mi Variable 4.6 mph - N/A   Clear
4:53 PM 86.0 °F 91.5 °F 71.1 °F 61% 29.90 in 10.0 mi NE 8.1 mph - N/A   Clear
5:53 PM 87.1 °F 93.6 °F 72.0 °F 61% 29.89 in 10.0 mi NE 8.1 mph - N/A   Clear
6:53 PM 87.1 °F 93.6 °F 72.0 °F 61% 29.89 in 10.0 mi East 6.9 mph - N/A   Clear
7:53 PM 84.9 °F 90.7 °F 72.0 °F 65% 29.89 in 10.0 mi East 4.6 mph - N/A   Clear
8:53 PM 81.0 °F 85.8 °F 73.0 °F 77% 29.88 in 10.0 mi ENE 4.6 mph - N/A   Clear
9:53 PM 77.0 °F - 70.0 °F 79% 29.89 in 10.0 mi East 5.8 mph - N/A   Clear
10:53 PM 75.0 °F - 70.0 °F 84% 29.91 in 10.0 mi East 4.6 mph - N/A   Clear
11:53 PM 73.9 °F - 70.0 °F 87% 29.90 in 10.0 mi SSE 4.6 mph - N/A   Clear